Regional Weather Roundup
Issued by NWS

Home | Current Version | Previous Version | Text Only | Print | Product List | Glossary Off
Versions: 1 2 3 4 5 6 7 8 9 10 11 12 13 14 15 16 17 18 19 20 21 22 23 24 25 26 27 28 29 30 31 32 33 34 35 36 37 38 39 40 41 42 43 44 45 46 47 48 49 50

000
ASUS43 KIND 230709
RWRIN

WEATHER ROUNDUP FOR INDIANA
NATIONAL WEATHER SERVICE INDIANAPOLIS IN
300 AM EDT WED APR 23 2014

NOTE: "FAIR" INDICATES FEW OR NO CLOUDS BELOW 12,000 FEET WITH NO
SIGNIFICANT WEATHER AND/OR OBSTRUCTIONS TO VISIBILITY.

* - STATION DOES NOT REPORT WEATHER SUCH AS PRECIPITATION OR FOG.

+ - STATION NOT QUALITY CONTROLLED BY THE NATIONAL WEATHER SERVICE.
    USE DATA WITH CAUTION...ESPECIALLY DEWPOINT AND RELATIVE
    HUMIDITY OBSERVATIONS.

INZ001>003-010>013-019-020-230800-
NORTHWEST INDIANA

CITY           SKY/WX    TMP DP  RH WIND       PRES   REMARKS
GARY /AIRPORT/ CLEAR     40  30  69 N14       30.10F
LA PORTE +     CLEAR     34  29  79 NW7       30.08R WCI  28
MICHIGAN CITY+ CLEAR     36  30  80 N9        30.08S
MONTICELLO +   CLEAR     33  28  79 NW5       30.06S WCI  29
RENSSELAER +   CLEAR     34  32  93 N6        30.08S WCI  29
VALPARAISO     CLEAR     35  28  75 N7        30.09R WCI  29

$$

LMZ046-743>745-230800-
SOUTHERN LAKE MICHIGAN

STATION/POSITION TIME  TEMP WIND        PRES
                       AIR  DIR/SP/G
                 (UTC) (F)  (DEG/KT/KT) (MB)
MICHIGAN CITY    0700   38  340/ 14/ 16   N/A

$$

INZ004-005-014>016-021>024-230800-
NORTH CENTRAL INDIANA

CITY           SKY/WX    TMP DP  RH WIND       PRES   REMARKS
GOSHEN         CLEAR     37  27  67 N8        30.02F
LOGANSPORT +   CLEAR     36  28  75 NW6       30.06S
PERU/GRISSOM   CLEAR     37  31  78 NW7       30.04S
ROCHESTER +    CLEAR     37  30  75 NW7       30.05R
SOUTH BEND     CLEAR     37  27  67 N14       30.06R
WARSAW +       CLEAR     34  28  80 NW5       30.03S WCI  30

$$

INZ006>009-017-018-025>027-230800-
NORTHEAST INDIANA

CITY           SKY/WX    TMP DP  RH WIND       PRES   REMARKS
ANGOLA *+      CLEAR     36  28  75 NW7       29.99F
AUBURN +       CLEAR     36  28  75 NW6       30.01S
FORT WAYNE     CLEAR     38  27  64 NW9       30.01S

$$

INZ028-029-035-036-043>045-051>053-230800-
WEST CENTRAL INDIANA

CITY           SKY/WX    TMP DP  RH WIND       PRES   REMARKS
GREENCASTLE +  CLEAR     39  32  75 N7        30.05S
LAFAYETTE      CLEAR     38  27  64 N8        30.06S
TERRE HAUTE    CLEAR     44  33  65 NE10      30.05R

$$

INZ030>032-037>040-046>048-054>057-064-065-230800-
CENTRAL INDIANA

CITY           SKY/WX    TMP DP  RH WIND       PRES   REMARKS
CP ATTERBURY + CLEAR     41  32  70 N5        30.04R
INDIANAPOLIS   CLEAR     41  28  60 N10       30.03S
-EAGLE CREEK   CLEAR     42  28  57 N13       30.03S
KOKOMO *+      CLEAR     37  25  60 NW7       30.04S
MARION +       CLEAR     38  27  65 N7        30.03S
MT COMFORT *+  CLEAR     39  32  75 NW10      30.03S
SHELBYVILLE    CLEAR     42  32  67 NW8       30.02R
ZIONSVILLE +   CLEAR     39  29  67 N10       30.04S

$$

INZ033-034-041-042-049-050-058-059-230800-
EAST CENTRAL INDIANA

CITY           SKY/WX    TMP DP  RH WIND       PRES   REMARKS
MUNCIE         CLEAR     37  30  75 NW12      30.01R

$$

INZ060-061-067>069-081>083-085>088-230800-
SOUTHWEST INDIANA

CITY           SKY/WX    TMP DP  RH WIND       PRES   REMARKS
EVANSVILLE     CLEAR     52  36  54 N3        30.00R
HUNTINGBURG *+ CLEAR     46  34  61 E8        30.01R
WASHINGTON +   CLEAR     46  37  71 NE5       30.02R

$$

INZ062-063-066-070>080-084-089>092-230800-
SOUTH CENTRAL AND SOUTHEAST INDIANA

CITY           SKY/WX    TMP DP  RH WIND       PRES   REMARKS
BLOOMINGTON    CLEAR     43  32  65 N6        30.03R
NORTH VERNON + CLEAR     41  34  75 NW3       30.02
SEYMOUR +      CLEAR     39  21  48 N5        30.03

$$




USA.gov is the U.S. government's official web portal to all federal, state and local government web resources and services.